Location: Coupvray
(48.8929°N, 2.7967°E)
Time: 03:42:06
(UTC+00:00)

Cosmos 1459 Rocket - Pass Details

Date: 14 July 2020
Orbit: 938 x 999 km, 83.0° (Epoch: 06 August)

Event Time Altitude Azimuth Distance (km) Brightness Sun altitude
Exits shadow 00:52:48 24° 161° (SSE) 1,843 5.0 -18.3°
Maximum altitude 00:56:23 57° 92° (E) 1,113 4.3 -18.1°
Drops below altitude 10° 01:02:25 10° 16° (NNE) 2,708 7.6 -17.9°
Sets 01:04:59 0° 13° (NNE) 3,668 8.8 -17.8°
